Météo par heure à Άλιμος

Ce jour, 24 Octobre, Samedi

Heure Température Précipitation Vent Pression Humidité
00:00 +21°C° 0 mm 2 m/s 761 mmHg 55%
01:00 +20°C° 0 mm 2 m/s 761 mmHg 55%
02:00 +20°C° 0 mm 2 m/s 761 mmHg 54%
03:00 +20°C° 0 mm 2 m/s 760 mmHg 54%
04:00 +20°C° 0 mm 2 m/s 760 mmHg 54%
05:00 +19°C° 0 mm 2 m/s 760 mmHg 54%
06:00 +20°C° 0 mm 2 m/s 760 mmHg 52%
07:00 +21°C° 0 mm 2 m/s 760 mmHg 50%
08:00 +21°C° 0 mm 2 m/s 760 mmHg 48%
09:00 +24°C° 0 mm 2 m/s 760 mmHg 43%
10:00 +25°C° 0 mm 1 m/s 760 mmHg 39%
11:00 +27°C° 0 mm 1 m/s 760 mmHg 34%
12:00 +27°C° 0 mm 1 m/s 760 mmHg 33%
13:00 +27°C° 0 mm 2 m/s 759 mmHg 33%
14:00 +28°C° 0 mm 2 m/s 759 mmHg 33%
15:00 +27°C° 0 mm 2 m/s 759 mmHg 35%
16:00 +27°C° 0 mm 2 m/s 759 mmHg 38%
17:00 +26°C° 0 mm 2 m/s 758 mmHg 40%
18:00 +25°C° 0 mm 2 m/s 759 mmHg 45%
19:00 +24°C° 0 mm 2 m/s 759 mmHg 49%
20:00 +23°C° 0 mm 2 m/s 759 mmHg 54%
21:00 +23°C° 0 mm 2 m/s 759 mmHg 57%
22:00 +23°C° 0 mm 2 m/s 759 mmHg 61%
23:00 +21°C° 0 mm 2 m/s 759 mmHg 64%

Demain, 25 Octobre, Dimanche

Heure Température Précipitation Vent Pression Humidité
00:00 +21°C° 0 mm 2 m/s 758 mmHg 66%
01:00 +21°C° 0 mm 2 m/s 758 mmHg 67%
02:00 +20°C° 0 mm 2 m/s 758 mmHg 69%
03:00 +20°C° 0 mm 2 m/s 758 mmHg 69%
04:00 +20°C° 0 mm 2 m/s 757 mmHg 68%
05:00 +20°C° 0 mm 2 m/s 757 mmHg 68%
06:00 +20°C° 0 mm 2 m/s 757 mmHg 65%
07:00 +20°C° 0 mm 2 m/s 757 mmHg 62%
08:00 +21°C° 0 mm 2 m/s 757 mmHg 59%
09:00 +23°C° 0 mm 2 m/s 757 mmHg 53%
10:00 +24°C° 0 mm 2 m/s 757 mmHg 47%
11:00 +26°C° 0 mm 2 m/s 757 mmHg 42%
12:00 +26°C° 0 mm 2 m/s 756 mmHg 39%
13:00 +27°C° 0 mm 2 m/s 756 mmHg 37%
14:00 +27°C° 0 mm 2 m/s 756 mmHg 35%
15:00 +27°C° 0 mm 3 m/s 756 mmHg 39%
16:00 +26°C° 0 mm 3 m/s 755 mmHg 43%
17:00 +25°C° 0 mm 3 m/s 755 mmHg 47%
18:00 +25°C° 0 mm 3 m/s 755 mmHg 53%
19:00 +24°C° 0 mm 3 m/s 756 mmHg 59%
20:00 +22°C° 0 mm 3 m/s 756 mmHg 65%
21:00 +22°C° 0 mm 3 m/s 756 mmHg 65%
22:00 +21°C° 0 mm 4 m/s 756 mmHg 64%
23:00 +21°C° 0 mm 4 m/s 757 mmHg 63%

Après-demain, 26 Octobre, Lundi

Heure Température Précipitation Vent Pression Humidité
00:00 +21°C° 0 mm 4 m/s 757 mmHg 64%
01:00 +20°C° 0 mm 4 m/s 757 mmHg 64%
02:00 +20°C° 0 mm 4 m/s 757 mmHg 65%
03:00 +19°C° 0 mm 4 m/s 757 mmHg 66%
04:00 +19°C° 0 mm 4 m/s 757 mmHg 67%
05:00 +19°C° 0 mm 3 m/s 757 mmHg 67%
06:00 +19°C° 0 mm 3 m/s 757 mmHg 65%
07:00 +20°C° 0 mm 3 m/s 757 mmHg 62%
08:00 +20°C° 0 mm 2 m/s 758 mmHg 60%
09:00 +21°C° 0 mm 2 m/s 758 mmHg 55%
10:00 +24°C° 0 mm 2 m/s 758 mmHg 50%
11:00 +25°C° 0 mm 2 m/s 759 mmHg 44%
12:00 +25°C° 0 mm 2 m/s 758 mmHg 43%
13:00 +25°C° 0 mm 2 m/s 758 mmHg 42%
14:00 +26°C° 0 mm 2 m/s 758 mmHg 41%
15:00 +25°C° 0 mm 2 m/s 758 mmHg 43%
16:00 +25°C° 0 mm 2 m/s 758 mmHg 44%
17:00 +25°C° 0 mm 2 m/s 758 mmHg 45%
18:00 +24°C° 0 mm 2 m/s 758 mmHg 51%
19:00 +23°C° 0 mm 2 m/s 758 mmHg 56%
20:00 +21°C° 0 mm 2 m/s 758 mmHg 62%
21:00 +22°C° 0 mm 1 m/s 758 mmHg 64%
22:00 +21°C° 0 mm 1 m/s 758 mmHg 67%
23:00 +21°C° 0 mm 1 m/s 758 mmHg 70%

, 27 Octobre, Mardi

Heure Température Précipitation Vent Pression Humidité
00:00 +21°C° 0 mm 1 m/s 758 mmHg 71%
01:00 +20°C° 0 mm 1 m/s 758 mmHg 73%
02:00 +20°C° 0 mm 1 m/s 758 mmHg 74%
03:00 +20°C° 0 mm 1 m/s 758 mmHg 75%
04:00 +20°C° 0 mm 1 m/s 757 mmHg 75%
05:00 +19°C° 0 mm 1 m/s 757 mmHg 76%
06:00 +20°C° 0 mm 1 m/s 757 mmHg 73%
07:00 +20°C° 0 mm 1 m/s 757 mmHg 70%
08:00 +21°C° 0 mm 1 m/s 758 mmHg 68%
09:00 +22°C° 0 mm 1 m/s 758 mmHg 63%
10:00 +23°C° 0 mm 1 m/s 758 mmHg 58%
11:00 +24°C° 0 mm 1 m/s 758 mmHg 54%
12:00 +24°C° 0 mm 1 m/s 758 mmHg 53%
13:00 +24°C° 0 mm 1 m/s 757 mmHg 52%
14:00 +24°C° 0 mm 2 m/s 757 mmHg 51%
15:00 +24°C° 0 mm 2 m/s 757 mmHg 52%
16:00 +24°C° 0 mm 2 m/s 757 mmHg 54%
17:00 +22°C° 0 mm 3 m/s 757 mmHg 56%
18:00 +23°C° 0 mm 2 m/s 757 mmHg 59%
19:00 +21°C° 0 mm 2 m/s 757 mmHg 62%
20:00 +21°C° 0 mm 2 m/s 757 mmHg 65%
21:00 +21°C° 0 mm 1 m/s 757 mmHg 67%
22:00 +21°C° 0 mm 1 m/s 757 mmHg 68%
23:00 +21°C° 0 mm 1 m/s 757 mmHg 70%

27 Octobre, Mardi

Heure Température Précipitation Vent Pression Humidité
00:00 +21°C° 0 mm 1 m/s 758 mmHg 71%
01:00 +20°C° 0 mm 1 m/s 758 mmHg 73%
02:00 +20°C° 0 mm 1 m/s 758 mmHg 74%
03:00 +20°C° 0 mm 1 m/s 758 mmHg 75%
04:00 +20°C° 0 mm 1 m/s 757 mmHg 75%
05:00 +19°C° 0 mm 1 m/s 757 mmHg 76%
06:00 +20°C° 0 mm 1 m/s 757 mmHg 73%
07:00 +20°C° 0 mm 1 m/s 757 mmHg 70%
08:00 +21°C° 0 mm 1 m/s 758 mmHg 68%
09:00 +22°C° 0 mm 1 m/s 758 mmHg 63%
10:00 +23°C° 0 mm 1 m/s 758 mmHg 58%
11:00 +24°C° 0 mm 1 m/s 758 mmHg 54%
12:00 +24°C° 0 mm 1 m/s 758 mmHg 53%
13:00 +24°C° 0 mm 1 m/s 757 mmHg 52%
14:00 +24°C° 0 mm 2 m/s 757 mmHg 51%
15:00 +24°C° 0 mm 2 m/s 757 mmHg 52%
16:00 +24°C° 0 mm 2 m/s 757 mmHg 54%
17:00 +22°C° 0 mm 3 m/s 757 mmHg 56%
18:00 +23°C° 0 mm 2 m/s 757 mmHg 59%
19:00 +21°C° 0 mm 2 m/s 757 mmHg 62%
20:00 +21°C° 0 mm 2 m/s 757 mmHg 65%
21:00 +21°C° 0 mm 1 m/s 757 mmHg 67%
22:00 +21°C° 0 mm 1 m/s 757 mmHg 68%
23:00 +21°C° 0 mm 1 m/s 757 mmHg 70%

28 Octobre, Mercredi

Heure Température Précipitation Vent Pression Humidité
00:00 +20°C° 0 mm 1 m/s 757 mmHg 71%
01:00 +20°C° 0 mm 1 m/s 757 mmHg 72%
02:00 +20°C° 0 mm 1 m/s 756 mmHg 73%
03:00 +20°C° 0 mm 1 m/s 756 mmHg 73%
04:00 +19°C° 0 mm 1 m/s 756 mmHg 74%
05:00 +19°C° 0 mm 1 m/s 756 mmHg 74%
06:00 +20°C° 0 mm 1 m/s 756 mmHg 72%
07:00 +20°C° 0 mm 1 m/s 757 mmHg 70%
08:00 +21°C° 0 mm 1 m/s 757 mmHg 67%
09:00 +22°C° 0 mm 1 m/s 757 mmHg 63%
10:00 +22°C° 0 mm 1 m/s 757 mmHg 59%
11:00 +23°C° 0 mm 1 m/s 757 mmHg 55%
12:00 +24°C° 0.1 mm 2 m/s 757 mmHg 55%
13:00 +24°C° 0.1 mm 3 m/s 757 mmHg 54%
14:00 +23°C° 0.1 mm 4 m/s 756 mmHg 54%
15:00 +22°C° 0.5 mm 4 m/s 756 mmHg 56%
16:00 +21°C° 0.5 mm 4 m/s 756 mmHg 58%
17:00 +20°C° 0.5 mm 4 m/s 756 mmHg 60%
18:00 +20°C° 0.1 mm 3 m/s 756 mmHg 61%
19:00 +20°C° 0.1 mm 3 m/s 756 mmHg 61%
20:00 +19°C° 0.1 mm 2 m/s 757 mmHg 61%
21:00 +19°C° 0.4 mm 2 m/s 757 mmHg 63%
22:00 +19°C° 0.4 mm 2 m/s 757 mmHg 64%
23:00 +20°C° 0.4 mm 1 m/s 757 mmHg 66%

29 Octobre, Jeudi

Heure Température Précipitation Vent Pression Humidité
00:00 +19°C° 0.1 mm 1 m/s 757 mmHg 66%
01:00 +18°C° 0.1 mm 2 m/s 757 mmHg 67%
02:00 +18°C° 0.1 mm 2 m/s 757 mmHg 68%
03:00 +18°C° 0 mm 2 m/s 757 mmHg 68%
04:00 +17°C° 0 mm 2 m/s 757 mmHg 69%
05:00 +17°C° 0 mm 3 m/s 757 mmHg 70%
06:00 +18°C° 0 mm 3 m/s 758 mmHg 69%
07:00 +18°C° 0 mm 3 m/s 758 mmHg 68%
08:00 +18°C° 0 mm 3 m/s 758 mmHg 68%
09:00 +20°C° 0 mm 2 m/s 759 mmHg 62%
10:00 +21°C° 0 mm 2 m/s 759 mmHg 56%
11:00 +23°C° 0 mm 2 m/s 760 mmHg 50%
12:00 +24°C° 0 mm 2 m/s 760 mmHg 48%
13:00 +24°C° 0 mm 2 m/s 760 mmHg 45%
14:00 +25°C° 0 mm 2 m/s 760 mmHg 43%
15:00 +24°C° 0 mm 2 m/s 760 mmHg 44%
16:00 +24°C° 0 mm 1 m/s 760 mmHg 45%
17:00 +24°C° 0 mm 1 m/s 760 mmHg 47%
18:00 +23°C° 0 mm 1 m/s 760 mmHg 51%
19:00 +22°C° 0 mm 1 m/s 761 mmHg 55%
20:00 +21°C° 0 mm 1 m/s 761 mmHg 59%
21:00 +21°C° 0 mm 1 m/s 762 mmHg 60%
22:00 +21°C° 0 mm 1 m/s 762 mmHg 61%
23:00 +20°C° 0 mm 1 m/s 762 mmHg 62%
Voir plus

Nous avons besoin de votre consentement

Meteoprog et ses fournisseurs de services peuvent stocker et accéder à des données personnelles telles que des cookies, des identifiants d'appareils ou d'autres technologies similaires sur votre appareil et traiter ces données pour personnaliser le contenu et les publicités, ainsi que pour fournir des fonctionnalités de médias sociaux et analyser le trafic.

  • Stocker et/ou accéder à des informations sur votre appareil

    Des cookies, des identifiants d'appareils ou d'autres informations peuvent être stockés ou accessibles sur votre appareil aux fins indiquées ci-dessus.

  • Annonces et contenus personnalisés, mesure des annonces et des contenus, connaissance de l'audience et développement de produits

    Les annonces et le contenu peuvent être personnalisés en fonction d'un profil. D'autres données peuvent être ajoutées pour mieux personnaliser les annonces et le contenu. Les performances des publicités et du contenu peuvent être mesurées. Il est possible d'obtenir des informations sur le public qui a vu les publicités et le contenu. Ces données peuvent être utilisées pour développer ou améliorer l'expérience de l'utilisateur, les systèmes et les logiciels.

En cliquant sur "J'accepte", vous autorisez l'utilisation de cookies, des identifiants d'appareils, des balises web ou d'autres technologies similaires. Vos paramètres peuvent être modifiés dans le navigateur de votre appareil.

Dans certains cas, des intérêts légitimes peuvent être invoqués plutôt qu'un consentement. Vous pouvez en savoir plus à ce sujet dans notre Politique de confidentialité et de cookies.